estenglv
WAP version
Login form
RSS
Esimene Mulgi rattaralli on peetud 10.08.2010 (0)
I Mulgi Rattaralli peeti tingimustes, mis tänavusele suvele juba reegliks saanud. Pikema distantsi stardihetkel oli temperatuur varjus 29 kraadi, viimaste lõpetajate saabudes juba üle 32. Kõrge ...
Mulgi rattaralli võidu napsas Sigvard Kukk TULEMUSED 08.08.2010 (0)
Täna (pühapäeval-toim.) esimest korda sõidetud Mulgi rattarallil võitis finišiheitluse paar aastat tagasi profispordist loobunud Sigvard Kukk, kes edestas mõne sentimeetriga Erki Pütsepa ja ...
Rein Taaramäe kinnitas oma osalemist Mulgi rattarallil 04.08.2010 (0)
Viljandi kutsub rattureid Mulgi rattarallile 29.07.2010 (0)
Mulgi Rattaralli - 83 km
Mulgi Rattaralli - 38 km
301 Moved Permanently Date: Fri, 22 Nov 2019 03:00:02 GMT Server: Apache / ZoneOS Location: https://www.ilm.ee/~data/include/ilm.php3 Content-Length: 318 Keep-Alive: timeout=5, max=100 Connection: Keep-Alive Content-Type: text/html; charset=iso-8859-1 301 Moved Permanently

Moved Permanently

The document has moved here.


Apache / ZoneOS Server at www.ilm.ee Port 80
Mulgi Rattaralli
Vaata ka 2012 2011 
Aeg 08.08.2010
Koht Viljandi EST
Spordiala Jalgrattasport
Distants Põhisõit 83 km 12:00
Rahvasõit 38 km 13:20
Korraldaja Viljandi Rattaklubi, Veiko Šmidt, +372 510 7516, veiko.smidt@eesti.ee, www.rattaklubi.ee   
mulgirr10_i.gif
• STARDINIMEKIRI • SOODUSPAKKUMISED • KOHALEJÕUDMINE • PEALTVAATAJATELE • AJALOOST
TULEMUSED
Nimi: Vanuseklass:
Text Xml Excel print
Koht Nr Nimi Võistkond  Aeg Koht v.k.    
41 68 Tamm Margo TARTU ÜLIKOOLI AKADEEMILINE SK 02:02:45 8 Diploma
42 107 Palm Tõnno Dünamo 02:02:45 23 Diploma
43 69 Vahtra Vahur TARTU ÜLIKOOLI AKADEEMILINE SK 02:02:45 4 Diploma
44 211 Ando Indrek Spordi Partner 02:02:45 24 Diploma
45 210 Kirdoja Andrus Extreem Sport 02:02:46 9 Diploma
46 2 Vaidem Josten VILJANDI RATTAKLUBI 02:02:46 5 Diploma
47 207 Sala Raivo Invesment Agency 02:02:46 10 Diploma
48 81 Lopman Veiko VELO 02:02:46 9 Diploma
49 114 Pikkuus Aavo Patrick JK Tamme 02:02:46 10 Diploma
50 50 Vilipõld Kristjan KALEVI JALGRATTAKOOL 02:02:46 25 Diploma
51 8 Klaos Taavi VILJANDI RATTAKLUBI 02:02:46 26 Diploma
52 94 Smite Liga VW-Valmiera 02:02:46 1 Diploma
53 208 Neeme Virgo Hawaii Express 02:02:46 27 Diploma
54 72 Käsi Marko VELO 02:02:46 28 Diploma
55 53 Korts-Laur Ervin ProShop Team 02:02:46 29 Diploma
56 52 Nõmmisto Jaanus PARALEPA 02:02:46 30 Diploma
57 17 Heinrand Kristjan CFC SPORDIKLUBI 02:02:46 31 Diploma
58 33 Kuhlap Kaupo COSMOS 02:02:46 11 Diploma
59 85 Soon Kevin VIIKING 02:02:46 11 Diploma
60 154 Roletsky Heiki 02:02:46 32 Diploma
61 46 Pruun Carl Heinrich JANEK TOMBAKU RATTAKLUBI 02:02:47 12 Diploma
62 4 Kivistik Kristjan VILJANDI RATTAKLUBI 02:02:50 33 Diploma
63 26 Ronimois Mihkel Alpha Baltic 02:02:51 34 Diploma
64 47 Leppik Gabriel KALEV CHOCOLATE TEAM 02:02:51 35 Diploma
65 96 Sarv Jaanus 02:02:52 12 Diploma
66 99 Rebane Henry TÜSK 02:02:52 13 Diploma
67 75 Vähi Jaagup VELO 02:02:52 36 Diploma
68 87 Nook Reimo VIIKING 02:02:53 37 Diploma
69 67 Põvvat Rainer TARTU ÜLIKOOLI AKADEEMILINE SK 02:02:53 38 Diploma
70 48 Kivistik Egert KALEVI JALGRATTAKOOL 02:03:32 39 Diploma
71 29 pillers Lauris Alpha Baltic 02:05:38 40 Diploma
72 102 Vasilis Donalds Beiteni 02:05:43 13 Diploma
73 209 Rääbis Mati Amserv Team 02:10:35 14 Diploma
74 70 Vilipson Marko VELO 02:10:35 15 Diploma
75 56 Kaasma Kaido PÜHA LOOMAAED 02:10:35 16 Diploma
76 5 Vaaks Ats VILJANDI RATTAKLUBI 02:10:36 41 Diploma
77 6 Holtsmann Marko VILJANDI RATTAKLUBI 02:12:26 42 Diploma
78 156 Jaaska Sven 02:12:51 43 Diploma
79 23 Kelk Kaarel CFC SPORDIKLUBI 02:12:51 6 Diploma
80 127 Kelk Margus SK Velo 02:12:51 17 Diploma
81 78 Merisalu Margus VELO 02:13:03 18 Diploma
82 44 Koort Kristel INVESTMENT AGENCY TEAM 02:13:03 1 Diploma
83 64 Vaikmäe Fredy TAMME 02:15:07 7 Diploma
84 180 Kütt Arti 02:15:08 44 Diploma
85 39 Lainevee Ivika FIXUS SPORT 02:15:08 2 Diploma
86 101 Rubenis Normunds Beiteni 02:15:37 19 Diploma
87 34 Krela Jaan DÜNAMO 02:16:04 20 Diploma
88 58 Vaga Merko RAPLAMAA RATTAKLUBI KOMO 02:16:35 45 Diploma
89 151 Erikson Toomas X-SPORT 02:16:42 46 Diploma
90 49 Prükkel Jaanus KALEVI JALGRATTAKOOL 02:16:42 21 Diploma
91 149 Jõekäär Madis Viljandi Rattaklubi 02:16:42 47 Diploma
92 120 Viitmaa Alar OK Lehola 02:16:42 22 Diploma
93 11 Suvi Siim CFC SPORDIKLUBI 02:16:50 8 Diploma
94 196 Puolokainen Raivo 02:16:50 48 Diploma
95 24 Kalm Keijo CFC SPORDIKLUBI 02:16:50 9 Diploma
96 111 Kollo Tiit Filter 02:16:50 23 Diploma
97 137 Johanson Raoul Tartu SK Velo 02:16:50 24 Diploma
98 186 Parmask Peeter 02:16:50 25 Diploma
99 182 Klasman John-Assar 02:16:50 26 Diploma
100 89 Sikk Matis VIIKING 02:16:50 49 Diploma
101 166 Toom Markus 02:16:50 50 Diploma
102 128 Vilums Guntis Smiltene 02:16:50 27 Diploma
103 82 Puntso Endrik VIIKING 02:16:50 14 Diploma
104 161 Pungar Rainer 02:17:02 51 Diploma
105 204 Kaarma Aadam 02:17:08 52 Diploma
106 110 Kollo Madis Filter 02:21:08 53 Diploma
107 112 Ernits Argo Gustaf Kopparberg 02:21:40 54 Diploma
108 158 Kaur Väino 02:21:42 28 Diploma
109 122 Reinik Vello Püha Loomaaed 02:21:45 29 Diploma
110 155 Teras Indrek 02:21:45 55 Diploma
111 159 Hürden Taivo 02:21:47 56 Diploma
112 42 Nurm Maris INVESTMENT AGENCY TEAM 02:21:47 3 Diploma
113 129 Pletiens Ilgvars Smiltene 02:21:47 30 Diploma
114 76 Uibokand Janelle VELO 02:21:49 2 Diploma
115 121 Beljajev Vladimir Probex 02:21:50 31 Diploma
116 138 Katin Vladimir Tartu SK VELO 02:21:55 32 Diploma
117 135 Lomp Priit Taliroos 02:21:57 57 Diploma
118 167 Liiva Enn 02:23:05 33 Diploma
119 73 Vähi Erkki VELO 02:25:21 58 Diploma
120 146 Punka Heikki Westline Team 02:26:23 59 Diploma
121 25 Kupp Alar CFC SPORDIKLUBI 02:26:27 10 Diploma
122 61 Kurgjärv Jaanika TAMME 02:26:29 4 Diploma
123 169 Teeorg Urmas 02:26:30 34 Diploma
124 177 Tammine Kalvar 02:26:30 60 Diploma
125 150 Puhu Sille Viljandi Rattaklubi 02:26:30 5 Diploma
126 178 Uus Jaan 02:26:30 35 Diploma
127 113 Klaar Alari Janek Tombaku Rattaklubi 02:26:30 61 Diploma
128 130 Rool Margus Spordipartner 02:26:33 62 Diploma
129 173 Paas Andres 02:26:59 36 Diploma
130 19 Gede Triin CFC SPORDIKLUBI 02:27:07 3 Diploma
131 105 Järvsalu Teet CC Superior 02:27:21 63 Diploma
132 90 Männi Anatoli VIRU REISID 02:28:07 1 Diploma
133 162 Aule Krister 02:28:17 64 Diploma
134 199 Pärt Ahto 02:28:20 37 Diploma
135 157 Sildvee Rainer 02:28:29 65 Diploma
136 197 Hunt Aivar 02:28:40 38 Diploma
137 142 Viidemann Mati Vennad-Dahl 02:30:16 39 Diploma
138 164 Koosa Marko 02:30:30 66 Diploma
139 123 Luur Ervin Püha Loomaaed 02:30:31 40 Diploma
140 163 Ostnik Mario 02:30:37 67 Diploma
141 109 Toomsalu Tõnis Felixi Maja 02:32:51 41 Diploma
142 181 Truuverk Kahro 02:34:24 42 Diploma
143 176 Põlts Heiki 02:34:24 43 Diploma
144 160 Beitans Kaspars 02:35:34 68 Diploma
145 117 Vällik Kristjan kollane öösärk 02:39:57 44 Diploma
146 172 Kriis Viljar 02:40:07 69 Diploma
147 205 Trei Reito 02:40:10 70 Diploma
148 185 Laas Johan 02:41:55 2 Diploma
149 141 Savi Marti Vahvel SS 02:41:57 71 Diploma
150 65 Redi Karin TARTU ÜLIKOOLI AKADEEMILINE SK 02:42:00 4 Diploma
151 171 Luht Villu 02:42:01 45 Diploma
152 201 Joosu Tambet 02:42:07 72 Diploma
153 143 Kadajane Eiki Vennad-Dahl 02:42:12 46 Diploma
154 152 Liivakant Lauri 02:42:14 47 Diploma
155 144 Talts Tanel Westline Team 02:42:15 73 Diploma
156 206 Koppelmaa Harri 02:42:25 48 Diploma
157 118 Volk Andrus MAN Sport Team 02:42:35 49 Diploma
158 124 Lehtoja Eha Püha Loomaaed 02:42:36 6 Diploma
159 74 Peiker Kaisa VELO 02:42:43 7 Diploma
160 115 Kotkas Marko Jõuetud Mehed 02:42:54 74 Diploma
161 168 Pettai Jaanus 02:43:06 75 Diploma
162 108 Lepik Hillar EWK 02:44:50 50 Diploma
163 184 Tirgo Tõnu 02:45:00 51 Diploma
164 187 Kangert Tiit 02:45:33 52 Diploma
165 200 Solvak Mihkel 02:45:51 76 Diploma
166 189 Ronimois Ruttar 02:48:56 53 Diploma
167 202 Juul Mari-Liis 02:50:30 8 Diploma
168 125 Riidamets Martin Püha Loomaaed 02:51:54 54 Diploma
169 170 Maasikmets Marek 02:53:12 77 Diploma
170 104 Karelson Madis BTR 02:53:33 55 Diploma
171 126 Kilter Peeter SJK Viiking 02:54:12 56 Diploma
172 213 Nõmmela Mihkel EP Spordiklubi 02:57:07 57 Diploma
173 191 Laikoja Ilmar 03:04:34 3 Diploma
174 175 Karing Toivo 03:06:04 58 Diploma
175 214 Sepa Andres 03:06:37 78 Diploma
176 145 Vaarmets Elar WESTLINE TEAM 03:10:01 79 Diploma
177 88 Veel Villu VIIKING 03:15:40 80 Diploma
178 174 Koort Indrek 03:15:42 59 Diploma
179 139 Lehes Siim Team Mass 03:16:25 81 Diploma
180 140 Kravets Oliver Team Mass 03:16:25 82 Diploma
181 131 Viisut Margus Staier 03:16:41 60 Diploma
182 188 Gerndorf Urmas 03:19:52 61 Diploma
183 136 Piirak Elita Taliroos 03:21:11 5 Diploma
184 147 Tuul Taavi WESTLINE TEAM 03:25:28 83 Diploma
185 195 Laane Jüri 03:34:10 4 Diploma
‹‹ Tagasi
MulgiRR10_b
 
Kommenteerimine ajutisel peatatud!
Sorteeri vanemast uuemaks:
Teet, , 06.08.2010 14:17
Kuidas toimub jootmine joogipunktides? Kas pudelid või topsid. Munamäe kogemusest pean kurtma, et kui topsid, siis ilmselt tuleb teha valik kas grupis püsimine või joomiseks peatumine Ja pakutavat temperatuuri vaadates tuleb ilmselt see valik nii mitmelgi teha.
Larella, , 06.08.2010 12:12
KCT kalendrisse vist see võistlus ei mahtunud, sest nad otsivad ikka võistlusi kus sõitjad maha võetakse.
Ott, , 06.08.2010 12:09
Tea kas Kriit ja Mandri ka jõuavad Mulgi rallile.
mulk, , 04.08.2010 00:34
Cofidis paneb ka oma kõige kõvema venna välja
Kuubik, , 03.08.2010 23:14
Ei jäeta siin poodiumi kohti mulkidele, CFC kahurvägi on kohal
hmm, , 03.08.2010 13:49
Naistele tundub pikk trass natuke liiast olema vist
veiko, , 30.07.2010 15:46
Kui Tallinna suunalt tulijad peaks muretsema transpordi pärast, siis üks võimalikke ja suvel sobilikke variante võiks olla rong. Rongiajad: Tallinn 7:49 -> Viljandi 10:20, Viljandi 16:19 -> Tallinn 18:51. Vaksalist stardipaika on 3,8 km (umbes 10 min) ja sõita tuleb alguses piki Vaksali tänavat ning seejärel Tallinna tänavat kuni stardipaik kätte paistab. Täispilet maksab 100 EEK, gruppidele alates 6-st inimesest ja igasugu õpilaspiletite omanikele on soodustused. Jalgratta transpordi eest eraldi maksma EI PEA Täpsema info leiab www.edel.ee
kohic, , 29.07.2010 17:52
mtb rattaga muidugi.
aga, , 28.07.2010 23:10
tegelt saab juba praegu üle selle silla.
veiko, , 28.07.2010 22:15
Kuni tänaseni oli väike kahtlus, et planeeritud trajektoril Mulgi Rattarallit sõita ei saa, siis 99,9% tõenäosusega on kindel, et muudatusi rajal ei tohiks tulla. Nimelt on kevadest saadik olnud remondis 72. km (27. km) asuv Kuudeküla sild ja tänane vestlus ehitajatega sisendas lootust, et Rattarallil osalejad on esimesed, kes uuest sillast üle saavad sõita.


Kõige populaarsemad
Mulgi Rattaralli 2010_r
r
VAHEFINISHEID TOETAB
Pinska
Kasutajanimi:
Parool:
 
*Uus kasutaja *Unustasid parooli?
SPORTINFO
KORRALDAJATELE
KIRJUTA MEILE
KONTAKT
KASUTUSTINGIMUSED
KOMMENTEERIMINE